Location: Anne Acres
(38.7004°N, 75.0827°W)
Time: 08:59:35
(UTC+00:00)

Courier 1B Rocket - Pass Details

Date: 14 November 2024
Orbit: 920 x 1201 km, 28.2° (Epoch: 06 December)

Event Time Altitude Azimuth Distance (km) Brightness Sun altitude
Rises 22:50:18 0° 257° (WSW) 3,690 10.2 -12.5°
Reaches altitude 10° 22:53:20 10° 247° (WSW) 2,700 8.7 -13.1°
Maximum altitude 22:58:51 30° 188° (S) 1,609 6.4 -14.1°
Drops below altitude 10° 23:04:11 10° 129° (SE) 2,607 6.9 -15.1°
Enters shadow 23:04:45 - 126° (SE) 2,782 7.0 -15.2°
